User: anonymous
Location: Fort Frances
(48.6170°N, 93.4170°W)
Time: 16:23:43
(UTC-05:00)
Language:

Iridium 53 - Orbit

View from above orbital plane
View from above orbital plane
View from above satellite
View from above satellite

Ground track
Ground track

The orbit data is extracted from the following two-line orbital elements,

1 25173U 98010E   14203.26341601  .00000177  00000-0  56143-4 0  8705
2 25173 086.3941 073.8256 0002200 099.2081 029.4893 14.34217652859704
Epoch (UTC): 22 July 2014 06:19:19
Eccentricity: 0.0002200
inclination: 86.3941°
perigee height: 776 km
apogee height: 779 km
right ascension of ascending node: 73.8256°
argument of perigee: 99.2081°
revolutions per day: 14.34217652
mean anomaly at epoch: 29.4893°
orbit number at epoch: 85970

The dashed part of the orbit path shows where the satellite is in the earth's shadow,  

DLR